Location: Ethel Rock
(53.4667°N, 4.5667°W)
Time: 04:15:32
(UTC+00:00)

Cosmos 1315 Rocket - Pass Details

Date: 24 October 2020
Orbit: 530 x 567 km, 81.2° (Epoch: 25 November)

Event Time Altitude Azimuth Distance (km) Brightness Sun altitude
Rises 05:38:49 0° 350° (N) 2,753 6.3 -13.1°
Reaches altitude 10° 05:41:05 10° 358° (N) 1,859 5.5 -12.7°
Maximum altitude 05:45:00 42° 70° (ENE) 820 4.2 -12.1°
Drops below altitude 10° 05:48:54 10° 142° (SE) 1,860 6.1 -11.6°
Sets 05:51:10 0° 149° (SSE) 2,755 6.9 -11.2°
